Wind_Speed
12 6 1 2 4 6 8 8 7 6 5 6 6 6 7 8 10 13 15 6 4 3 6 7 8 7 13 7 2 21 3 3 4 5 6 5 7 3 6 23 12 15 22 34 32
13 8 3 1 3 5 6 8 7 7 6 7 7 7 9 11 13 14 6 7 5 0 6 9 9 8 11 4 7 4 5 12 9 4 3 5 9 14 7 9 8 13 18 37 30
15 10 6 1 2 4 6 7 8 8 8 7 7 7 8 11 12 5 9 2 5 2 4 6 9 9 7 4 5 4 4 2 6 7 7 9 18 4 9 4 20 28 35 36 30
17 11 7 3 1 4 6 6 8 9 9 8 6 6 7 8 1 8 8 3 4 3 4 5 6 4 5 2 5 4 10 7 11 12 9 6 16 11 15 10 25 27 36 36 32
19 13 8 4 0 2 4 5 7 8 9 8 6 5 7 6 5 5 13 6 4 6 8 9 12 13 1 0 2 1 3 5 5 7 13 12 23 9 11 15 23 32 33 36 29
20 15 9 5 1 2 3 4 5 7 8 7 5 4 5 4 3 5 14 1 5 5 5 12 14 14 5 3 2 3 3 8 8 2 6 19 20 11 11 23 29 36 34 34 30
19 16 11 6 3 1 3 4 5 6 6 4 5 5 9 11 2 5 8 4 3 0 5 22 13 22 10 4 14 13 4 1 7 10 11 27 12 4 16 31 29 32 37 30 27
18 16 13 8 4 2 3 3 3 4 5 4 2 4 8 5 7 5 2 5 3 0 7 17 15 17 14 6 5 9 6 8 2 12 5 3 2 4 19 30 26 30 30 27 27
15 14 14 11 7 4 3 2 2 3 3 3 2 4 9 6 10 7 6 2 3 6 6 15 11 7 9 5 4 5 4 11 7 10 7 5 2 2 28 31 25 21 27 27 27
13 12 11 11 10 7 7 6 3 2 3 3 5 6 9 8 5 6 9 7 4 5 3 17 6 3 4 5 2 1 1 4 6 8 2 4 3 7 22 26 25 25 26 27 26
11 9 7 7 7 5 4 4 2 2 7 9 4 9 13 3 5 14 16 13 22 13 5 6 5 3 6 4 3 4 6 10 14 10 2 4 2 11 17 18 21 27 29 27 25
10 7 6 4 5 6 8 8 7 3 8 12 18 19 17 16 7 13 21 10 8 3 3 1 1 4 6 3 2 3 6 10 12 5 4 2 6 6 17 19 28 29 30 30 28
11 7 5 5 7 8 8 4 7 10 3 8 14 19 15 8 9 11 15 15 4 1 3 4 6 1 2 3 11 6 5 7 7 8 12 3 11 7 14 17 17 25 29 27 32
10 7 5 5 4 2 7 7 9 4 5 6 4 7 15 6 3 13 16 17 2 5 4 3 6 5 7 8 6 4 7 7 5 1 2 8 4 4 13 13 14 21 27 29 31
10 6 6 4 4 3 6 8 11 4 4 4 4 2 8 10 3 3 24 13 11 9 5 8 5 6 7 7 13 9 10 4 2 6 5 11 2 5 7 10 12 20 27 32 33
10 6 5 3 7 2 3 4 4 5 4 3 7 4 5 11 6 6 14 5 10 5 4 7 6 5 6 12 19 3 1 6 6 2 4 4 3 5 4 4 17 21 30 35 37
9 5 4 3 6 2 2 5 5 3 3 5 5 5 6 6 4 6 4 4 7 3 6 4 6 4 13 7 11 3 7 3 5 5 1 9 1 7 9 3 11 22 30 36 37
6 6 3 2 6 3 3 5 3 6 4 3 7 3 7 5 7 4 5 5 7 4 3 3 7 10 9 8 7 5 7 5 3 3 4 6 4 8 15 32 22 28 38 39 37
4 4 1 3 7 3 2 4 6 4 4 2 4 4 4 6 5 6 8 8 9 10 8 5 5 4 6 7 7 3 4 2 8 4 4 7 6 11 11 10 13 23 30 35 40
5 4 3 6 7 5 4 5 4 4 9 3 2 3 6 6 4 7 7 7 9 12 8 5 3 6 3 6 5 7 10 3 3 5 4 7 7 7 9 6 2 8 21 35 42
4 3 2 6 5 2 2 6 7 20 26 2 1 3 2 2 4 4 3 5 6 2 10 4 3 6 4 5 9 3 3 4 6 4 5 3 6 9 11 8 8 15 26 34 41
4 2 8 7 2 2 1 4 15 11 24 8 3 3 3 4 4 8 7 12 20 8 4 1 5 1 4 8 5 5 6 5 5 5 2 1 6 6 8 7 13 22 31 38 42
8 5 10 12 3 4 8 6 6 14 12 10 13 10 6 7 6 10 7 14 30 8 1 2 2 4 9 7 4 2 1 3 7 4 6 5 6 6 7 4 12 14 30 35 41
5 4 6 8 4 3 6 6 9 15 11 13 9 10 8 9 8 6 13 10 19 13 31 10 3 6 5 9 3 7 6 8 7 4 7 6 7 7 6 7 12 18 19 20 31
8 4 6 4 7 11 2 5 8 9 13 25 7 13 7 6 7 7 7 7 20 14 17 5 2 5 4 7 3 4 4 7 5 4 7 9 9 12 8 10 18 15 18 17 16
7 8 10 6 14 5 10 9 9 7 6 7 9 12 5 6 3 8 4 4 4 10 8 5 3 5 7 7 9 5 9 6 7 10 4 2 10 10 11 11 13 18 18 17 16
20 10 5 7 9 5 6 6 7 9 4 16 13 6 6 10 25 24 15 16 9 4 4 2 2 4 6 5 7 5 4 3 5 6 9 5 11 8 7 7 17 25 23 21 18
Wind_Direction
16 18 346 237 224 230 234 234 238 248 257 268 280 292 295 297 295 290 279 247 210 2 327 316 273 278 282 240 83 131 203 281 231 183 220 262 11 46 85 144 161 184 173 156 154
11 10 1 244 219 221 222 227 227 235 246 263 280 297 305 313 309 298 310 249 231 286 322 305 273 291 310 359 128 130 161 200 198 190 280 50 356 337 340 115 99 112 152 153 149
6 8 3 337 217 208 212 212 211 218 228 244 268 288 308 323 326 21 10 275 231 304 309 278 283 301 16 288 181 167 210 168 250 161 58 337 305 286 275 262 155 142 153 163 161
8 8 8 9 206 205 201 200 207 209 221 236 253 281 308 323 73 355 347 331 188 195 204 237 295 279 183 220 182 145 248 169 117 163 189 173 256 279 220 216 164 157 155 166 167
11 10 11 9 103 200 198 190 203 208 219 232 251 286 316 313 287 335 351 315 188 204 218 275 307 299 275 212 204 142 256 318 204 278 216 199 232 246 172 168 154 160 160 169 169
13 14 16 13 42 171 186 182 194 208 218 231 251 282 304 285 8 351 350 241 177 219 348 336 290 317 43 310 341 327 251 3 18 25 251 202 235 220 145 151 145 162 162 171 177
14 16 20 18 20 121 157 174 187 199 212 220 253 285 281 272 215 314 18 92 131 205 28 29 62 43 21 12 37 24 10 161 345 287 296 204 232 123 142 154 146 154 166 175 177
12 17 21 27 35 75 132 160 180 188 198 207 257 304 268 291 280 243 179 134 181 71 82 27 34 53 47 327 45 24 41 359 106 272 289 357 105 178 142 146 155 157 174 181 183
8 14 23 27 33 48 77 99 123 156 180 176 217 287 267 232 226 236 213 122 240 264 294 358 22 74 29 75 29 349 292 310 295 185 341 47 97 207 146 153 160 157 173 171 169
5 8 17 28 39 51 64 50 59 129 177 182 224 299 244 235 210 212 185 188 80 325 40 34 39 81 25 60 205 283 304 298 276 339 142 310 314 162 151 152 161 160 166 165 167
1 3 7 10 18 12 354 354 359 267 223 226 234 234 303 329 283 164 174 113 72 52 28 6 47 81 149 163 172 203 287 304 284 297 3 233 49 173 163 154 151 165 168 170 176
352 352 344 329 333 320 314 298 332 307 299 291 249 257 275 292 285 168 181 86 94 97 215 335 319 139 102 167 120 243 219 267 293 222 231 337 297 224 175 176 175 171 177 175 165
345 345 330 314 303 296 293 338 338 328 315 283 237 236 259 285 246 250 159 123 108 173 217 158 238 98 76 50 352 321 263 274 235 284 212 172 217 222 202 182 179 183 187 186 181
342 339 323 317 295 297 28 50 16 356 54 282 209 250 231 192 278 248 194 151 161 225 341 20 293 181 134 118 228 317 263 156 244 133 145 37 277 247 179 196 184 182 187 188 188
336 335 319 284 224 219 342 17 354 307 17 212 218 217 180 180 206 275 175 175 155 196 155 243 203 196 161 184 177 228 253 300 195 107 93 351 55 262 125 204 200 194 189 196 192
325 329 332 273 216 288 287 313 328 47 274 240 157 148 96 205 222 257 269 165 141 137 269 263 251 171 137 195 193 206 254 9 20 35 68 278 132 287 220 217 200 195 195 194 195
321 316 326 223 164 220 257 323 54 147 303 199 177 157 183 215 251 177 169 168 166 117 246 282 233 124 155 172 203 190 63 351 1 13 223 328 41 245 259 277 221 199 190 191 198
319 308 312 219 199 286 338 53 74 243 266 225 143 100 178 181 244 213 149 225 269 163 87 213 327 169 180 176 163 168 144 154 129 348 310 354 343 281 293 288 262 192 187 192 196
316 303 350 113 186 192 28 54 215 256 263 7 68 157 275 236 189 168 212 214 215 170 180 154 270 257 161 145 145 203 67 124 103 359 26 318 293 289 277 1 162 173 180 187 197
340 323 201 147 143 165 77 234 255 230 312 279 78 156 171 248 171 159 184 218 230 185 169 230 284 216 183 119 27 166 158 83 30 108 65 275 279 237 296 332 109 191 186 191 198
37 10 134 161 144 225 147 243 285 313 328 155 268 20 128 5 228 286 287 332 175 40 156 195 124 289 113 201 171 94 205 71 111 112 154 230 249 217 220 251 224 195 203 192 198
36 35 161 193 34 8 200 234 301 333 360 355 38 94 72 14 24 38 352 0 351 158 151 208 127 324 271 279 174 107 162 146 120 223 219 187 274 121 206 231 266 243 200 209 204
358 338 175 207 44 327 313 327 337 15 10 359 10 11 358 30 50 33 5 352 1 355 150 209 30 7 350 0 8 280 86 107 100 106 191 165 255 189 148 288 274 162 198 206 209
27 21 2 70 63 13 347 344 2 3 42 12 35 37 9 27 15 20 7 358 348 13 14 21 100 151 183 227 210 313 178 176 128 132 164 235 254 241 202 202 254 143 158 184 208
37 43 19 330 344 338 357 2 16 6 6 28 30 25 11 3 8 14 350 340 341 21 3 41 354 342 286 239 267 282 180 210 205 158 165 221 234 258 197 195 219 174 159 175 189
46 9 352 315 333 15 7 357 18 347 13 354 358 337 13 48 343 309 327 357 270 325 359 358 290 32 316 325 355 317 329 216 194 199 284 193 245 261 243 203 203 199 166 173 182
28 19 342 332 350 35 347 337 6 6 326 18 15 4 44 347 311 293 290 290 251 278 329 274 54 26 281 342 340 1 291 231 257 177 174 170 226 265 242 189 199 201 181 175 174
Height
1508 1507 1506 1506 1506 1507 1508 1509 1510 1511 1512 1512 1513 1513 1513 1512 1512 1510 1509 1511 1512 1513 1513 1513 1512 1512 1512 1512 1512 1518 1535 1540 1527 1525 1520 1514 1511 1509 1510 1509 1511 1512 1512 1518 1525
1508 1506 1505 1505 1505 1505 1506 1508 1509 1510 1511 1511 1511 1511 1511 1511 1510 1508 1509 1509 1510 1511 1511 1510 1511 1512 1515 1515 1516 1519 1532 1523 1515 1513 1508 1512 1514 1515 1515 1509 1511 1513 1517 1522 1526
1507 1506 1504 1504 1503 1504 1505 1506 1507 1509 1509 1510 1511 1511 1511 1510 1509 1506 1506 1507 1509 1509 1509 1509 1510 1513 1514 1512 1512 1514 1516 1509 1513 1514 1515 1515 1511 1512 1516 1515 1508 1511 1516 1521 1527
1507 1505 1504 1503 1502 1502 1503 1504 1505 1507 1508 1509 1510 1511 1511 1511 1513 1507 1507 1507 1508 1509 1509 1509 1510 1510 1508 1510 1508 1510 1506 1504 1512 1514 1518 1517 1507 1510 1511 1509 1508 1511 1515 1521 1526
1507 1505 1503 1502 1502 1502 1502 1503 1504 1505 1506 1508 1509 1510 1511 1511 1508 1507 1506 1506 1506 1508 1509 1511 1510 1509 1509 1506 1506 1507 1505 1506 1511 1514 1514 1515 1513 1510 1507 1506 1510 1514 1518 1523 1527
1508 1505 1503 1502 1501 1501 1502 1503 1503 1505 1505 1507 1508 1510 1511 1511 1506 1506 1505 1505 1506 1510 1513 1514 1512 1508 1507 1508 1508 1507 1508 1511 1511 1512 1512 1511 1510 1513 1506 1506 1512 1513 1519 1525 1527
1509 1506 1504 1502 1502 1501 1502 1503 1503 1504 1505 1507 1508 1509 1509 1506 1505 1506 1506 1507 1509 1510 1512 1511 1508 1506 1508 1510 1513 1510 1513 1511 1513 1508 1506 1504 1512 1505 1505 1507 1512 1517 1521 1523 1528
1510 1507 1505 1503 1502 1502 1502 1503 1503 1504 1505 1506 1508 1509 1505 1504 1504 1504 1507 1508 1508 1510 1511 1509 1509 1507 1508 1511 1513 1515 1515 1525 1514 1513 1506 1507 1516 1505 1506 1508 1514 1518 1519 1521 1525
1510 1508 1506 1504 1503 1503 1503 1504 1504 1505 1505 1507 1508 1507 1502 1500 1501 1503 1505 1507 1507 1508 1508 1508 1509 1509 1510 1515 1525 1526 1540 1533 1514 1512 1511 1507 1514 1508 1507 1509 1515 1517 1518 1521 1525
1511 1509 1508 1506 1505 1505 1505 1505 1505 1506 1506 1507 1507 1509 1500 1498 1500 1502 1506 1508 1508 1506 1506 1507 1510 1511 1517 1521 1540 1533 1535 1529 1528 1515 1510 1507 1511 1508 1508 1510 1513 1516 1519 1521 1524
1511 1509 1508 1507 1507 1506 1506 1507 1509 1508 1506 1502 1501 1497 1496 1498 1499 1503 1504 1505 1508 1508 1513 1513 1517 1519 1520 1519 1520 1526 1525 1528 1516 1517 1513 1510 1508 1508 1508 1511 1513 1515 1518 1521 1523
1510 1509 1508 1507 1506 1506 1506 1505 1504 1506 1501 1496 1497 1497 1495 1497 1501 1499 1504 1508 1511 1516 1512 1512 1516 1515 1519 1520 1521 1524 1526 1521 1512 1512 1515 1511 1513 1507 1506 1508 1508 1512 1516 1518 1523
1508 1507 1506 1506 1505 1505 1505 1504 1504 1504 1502 1493 1492 1493 1493 1495 1496 1497 1501 1510 1513 1511 1507 1509 1506 1512 1524 1523 1522 1524 1522 1517 1517 1504 1504 1508 1515 1509 1507 1508 1511 1512 1514 1516 1519
1507 1506 1505 1504 1506 1504 1504 1504 1504 1502 1513 1498 1490 1489 1491 1492 1494 1492 1495 1500 1512 1512 1508 1504 1496 1503 1519 1517 1522 1534 1503 1497 1504 1515 1528 1515 1539 1509 1506 1509 1510 1511 1512 1515 1517
1504 1504 1503 1502 1502 1503 1505 1504 1503 1504 1542 1489 1487 1486 1487 1490 1490 1488 1494 1495 1502 1505 1510 1503 1499 1504 1513 1513 1514 1515 1500 1497 1494 1516 1523 1528 1535 1512 1505 1512 1507 1507 1509 1512 1515
1501 1501 1500 1500 1500 1502 1501 1502 1503 1521 1535 1493 1484 1485 1488 1487 1486 1486 1487 1491 1497 1504 1504 1499 1491 1494 1503 1500 1502 1499 1504 1510 1512 1521 1549 1543 1539 1525 1510 1500 1499 1501 1504 1508 1512
1499 1499 1498 1499 1500 1499 1499 1500 1517 1533 1487 1492 1490 1486 1489 1490 1487 1486 1488 1491 1500 1515 1514 1494 1489 1490 1492 1499 1502 1502 1523 1551 1545 1550 1549 1536 1533 1518 1498 1493 1495 1494 1499 1503 1508
1497 1497 1498 1497 1498 1498 1498 1500 1523 1499 1490 1476 1482 1488 1494 1489 1486 1484 1492 1498 1490 1490 1507 1509 1512 1486 1482 1489 1497 1508 1518 1541 1560 1558 1552 1534 1540 1514 1490 1484 1481 1486 1491 1498 1502
1496 1496 1496 1497 1497 1498 1498 1520 1511 1493 1483 1481 1485 1495 1495 1485 1485 1487 1490 1492 1484 1485 1504 1512 1504 1477 1474 1478 1483 1502 1521 1517 1542 1549 1554 1548 1529 1502 1485 1474 1475 1482 1488 1493 1497
1496 1495 1495 1497 1497 1498 1502 1511 1496 1483 1478 1473 1486 1483 1501 1487 1490 1488 1487 1470 1475 1472 1472 1482 1503 1477 1473 1480 1484 1488 1504 1526 1533 1562 1571 1554 1543 1532 1496 1485 1481 1484 1486 1487 1491
1497 1496 1495 1497 1498 1498 1511 1505 1490 1480 1473 1471 1475 1481 1487 1484 1483 1481 1478 1465 1464 1464 1469 1475 1488 1486 1477 1484 1491 1501 1509 1511 1517 1530 1558 1557 1533 1491 1486 1481 1478 1475 1478 1482 1486
1498 1499 1498 1498 1501 1500 1505 1494 1487 1483 1474 1472 1469 1472 1477 1479 1481 1486 1488 1477 1467 1460 1469 1468 1490 1501 1485 1468 1467 1478 1491 1497 1520 1541 1540 1539 1519 1476 1475 1476 1477 1473 1471 1475 1480
1501 1500 1501 1502 1513 1511 1498 1493 1490 1487 1486 1482 1485 1483 1476 1484 1490 1489 1488 1478 1471 1469 1471 1468 1494 1515 1506 1487 1481 1481 1488 1491 1501 1515 1533 1538 1508 1464 1471 1474 1470 1464 1466 1470 1475
1505 1508 1503 1503 1507 1509 1508 1504 1500 1492 1492 1493 1495 1486 1487 1493 1491 1495 1488 1484 1480 1477 1472 1471 1489 1501 1523 1504 1489 1485 1483 1483 1492 1515 1518 1515 1483 1465 1466 1470 1474 1463 1463 1468 1471
1510 1518 1521 1520 1510 1511 1507 1508 1505 1505 1498 1497 1498 1500 1503 1505 1502 1503 1495 1488 1482 1481 1482 1484 1496 1490 1488 1486 1479 1478 1478 1483 1485 1492 1498 1489 1487 1461 1458 1463 1467 1465 1464 1466 1468
1520 1524 1521 1519 1517 1512 1512 1517 1513 1509 1506 1506 1506 1503 1503 1509 1512 1510 1503 1499 1496 1483 1489 1488 1499 1492 1494 1481 1480 1480 1471 1470 1476 1479 1478 1479 1480 1455 1453 1458 1463 1464 1462 1465 1466
1527 1528 1527 1523 1521 1520 1525 1520 1517 1513 1508 1510 1508 1503 1505 1508 1504 1498 1495 1492 1491 1492 1492 1493 1496 1503 1508 1491 1488 1496 1476 1470 1466 1464 1470 1488 1466 1451 1451 1454 1458 1463 1462 1464 1468